Aéroport int. de Vancouver, Colombie-Britannique

Conditions des dernières 24 heures

Date / Heure
(HAP)
Conditions Temp
(°F)
Humidité
(%)
Point de rosée
(°F)
Vent
(mph)
Pression (pouces) Visibilité
(miles)
31 octobre 2014
22:00 Généralement nuageux 51 94 49 E 7 29.9 12
21:00 Généralement nuageux 51 92 49 E 10 29.9 15
20:00 Généralement nuageux 51 94 49 ENE 6 29.9 15
19:00 Généralement nuageux 51 94 49 ESE 6 29.9 15
18:00 Généralement nuageux 51 92 49 SE 7 29.9 15
17:00 Généralement nuageux 52 93 50 SSE 2 29.8 20
16:00 Généralement nuageux 51 93 50 SSO 5 29.8 20
15:00 Généralement nuageux 52 94 51 SO 5 29.8 20
14:00 Pluie faible 52 96 51 NO 3 29.8 15
13:00 Pluie faible 51 97 50 O 5 29.8 12
12:00 Pluie faible 51 97 50 O 14 29.8 10
11:00 Pluie faible 52 95 50 SE 5 29.8 12
10:00 Pluie faible 52 94 50 calme 29.7 15
9:00 Pluie faible 51 95 50 O 4 29.7 10
8:00 Pluie faible 51 97 50 NNO 2 29.7 12
7:00 Pluie faible 51 98 50 calme 29.7 15
6:00 Généralement nuageux 50   97 49 calme 29.7 12
5:00 Généralement nuageux 51 97 50 ENE 3 29.7 15
4:00 Généralement nuageux 51 97 51 ENE 5 29.7 8
3:00 Généralement nuageux 51 97 50 E 7 29.8 12
2:00 Généralement nuageux 51 97 51 E 7 29.8 15
1:00 Généralement nuageux 51 97 50 E 9 29.8 15
0:00 Généralement nuageux 52 97 51 E 7 29.8 15
30 octobre 2014
23:00 Généralement nuageux 53 94 51 ESE 7 29.8 12
22:00 Pluie faible 54   95 52 SSE 8 29.8 10
N.D. non disponible
↑ température la plus haute
↓ température la plus basse

Si vous désirez plus de données historiques sur les conditions météo, s.v.p. visitez Données climatologiques en ligne.

Date de modification :